Location: Newark
(45.9456°N, 15.4064°E)
Time: 15:29:19
(UTC+00:00)

deb Explorer IX - Visible Passes

Search period start: 29 January 2020 00:00
Search period end: 08 February 2020 00:00
Orbit: 548 x 1101 km, 38.8° (Epoch: 28 January)

Date Brightness Start Highest point End Pass type
(mag) Time Alt. Az. Time Alt. Az. Time Alt. Az.
29 Jan ? 17:59:01 10° S 18:03:26 20° SSE 18:03:51 20° SE visible
29 Jan ? 19:43:34 10° SW 19:45:12 18° SW 19:45:12 18° SW visible
30 Jan ? 17:36:43 10° S 17:41:00 19° SSE 17:42:54 17° SE visible
30 Jan ? 19:21:14 10° SW 19:24:15 26° SSW 19:24:15 26° SSW visible
31 Jan ? 17:14:26 10° S 17:18:34 19° SSE 17:21:53 13° ESE visible
31 Jan ? 18:58:55 10° SW 19:03:15 35° SSW 19:03:15 35° SSW visible
01 Feb ? 16:52:10 10° S 16:56:09 19° SSE 17:00:28 10° ESE visible
01 Feb ? 18:36:36 10° SW 18:42:11 39° SSE 18:42:11 39° SSE visible
01 Feb ? 20:22:48 10° WSW 20:23:33 14° WSW 20:23:33 14° WSW visible
02 Feb ? 16:29:56 10° S 16:33:44 18° SSE 16:37:54 10° ESE visible
02 Feb ? 18:14:19 10° SW 18:19:53 39° SSE 18:21:06 36° SE visible
02 Feb ? 20:00:28 10° WSW 20:02:27 21° WSW 20:02:27 21° WSW visible
03 Feb ? 17:52:02 10° SW 17:57:27 38° SSE 17:59:58 28° ESE visible
03 Feb ? 19:38:08 10° WSW 19:41:19 29° SW 19:41:19 29° SW visible
04 Feb ? 17:29:46 10° SW 17:35:01 38° SSE 17:38:50 20° ESE visible
04 Feb ? 19:15:50 10° WSW 19:20:11 39° SW 19:20:11 39° SW visible
05 Feb ? 17:07:31 10° SW 17:12:35 37° SSE 17:17:41 13° ESE visible
05 Feb ? 18:53:32 10° WSW 18:59:01 44° S 18:59:01 44° S visible
05 Feb ? 20:40:21 10° W 20:40:22 10° W 20:40:22 10° W visible
06 Feb ? 16:45:16 10° SW 16:50:11 36° SSE 16:55:51 10° ESE visible
06 Feb ? 18:31:15 10° WSW 18:36:47 43° S 18:37:53 40° SSE visible
06 Feb ? 20:18:02 10° W 20:19:14 15° WSW 20:19:14 15° WSW visible
07 Feb ? 18:08:59 10° WSW 18:14:20 42° S 18:16:45 30° SE visible
07 Feb ? 19:55:44 10° WSW 19:58:06 21° WSW 19:58:06 21° WSW visible
